Location: Bucquoy
(50.1391°N, 2.7097°E)
Time: 06:57:44
(UTC+00:00)

Cosmos 1461 - Pass Details

Date: 29 September 2021
Orbit: 520 x 642 km, 65.0° (Epoch: 18 October)

Event Time Altitude Azimuth Distance (km) Brightness Sun altitude
Rises 18:18:04 0° 302° (WNW) 2,690 7.6 -8.3°
Reaches altitude 10° 18:22:31 10° 256° (WSW) 1,767 6.7 -9.0°
Maximum altitude 18:22:48 10° 251° (WSW) 1,761 6.6 -9.0°
Drops below altitude 10° 18:23:06 10° 247° (WSW) 1,764 6.5 -9.1°
Sets 18:27:28 0° 200° (SSW) 2,632 6.5 -9.8°
